This is the latest recevied weather packets stored in our database for station/object E20EHQ-13. If no packets are shown the sender has not sent any weather packets the latest 10 day(s).
| Time | Temp. | Humidity | Pressure | Rain* | Wind** | Luminosity | Snow |
|---|---|---|---|---|---|---|---|
| 1778128163 | 32.22° C | 72% | 1008.2 hPa | 0 mm | - | 335 W/m² | - |
| 1778127262 | 32.22° C | 73% | 1008.3 hPa | 0 mm | - | 270 W/m² | - |
| 1778126662 | 31.67° C | 73% | 1008.3 hPa | 0 mm | - | 245 W/m² | - |
| 1778126062 | 31.67° C | 73% | 1008.2 hPa | 0 mm | - | 186 W/m² | - |
| 1778125462 | 31.67° C | 74% | 1008.4 hPa | 0 mm | - | 195 W/m² | - |
| 1778124863 | 31.67° C | 75% | 1008.5 hPa | 0 mm | - | 146 W/m² | - |
| 1778124263 | 31.67° C | 75% | 1008.6 hPa | 0 mm | - | 159 W/m² | - |
| 1778123362 | 31.67° C | 75% | 1008.7 hPa | 0 mm | - | 241 W/m² | - |
| 1778123062 | 31.67° C | 76% | 1008.7 hPa | 0 mm | - | 438 W/m² | - |
| 1778122762 | 31.67° C | 76% | 1008.7 hPa | 0 mm | - | 300 W/m² | - |
| 1778122462 | 31.67° C | 76% | 1008.8 hPa | 0 mm | - | 272 W/m² | - |
| 1778121862 | 31.11° C | 78% | 1008.9 hPa | 0 mm | - | 397 W/m² | - |
| 1778121562 | 31.11° C | 78% | 1008.9 hPa | 0 mm | - | 384 W/m² | - |
| 1778121262 | 31.11° C | 78% | 1009 hPa | 0 mm | - | 278 W/m² | - |
| 1778120663 | 31.11° C | 79% | 1008.9 hPa | 0 mm | - | 460 W/m² | - |
| 1778120362 | 31.11° C | 80% | 1008.9 hPa | 0 mm | - | 188 W/m² | - |
| 1778120063 | 31.11° C | 80% | 1008.9 hPa | 0 mm | - | 198 W/m² | - |
| 1778119462 | 30.56° C | 81% | 1008.9 hPa | 0 mm | - | 458 W/m² | - |
| 1778118862 | 30.56° C | 82% | 1008.9 hPa | 0 mm | - | 428 W/m² | - |
| 1778118262 | 30.56° C | 82% | 1008.7 hPa | 0 mm | - | 218 W/m² | - |
| 1778117662 | 30° C | 84% | 1008.6 hPa | 0 mm | - | 196 W/m² | - |
| 1778117063 | 30° C | 84% | 1008.6 hPa | 0 mm | - | 155 W/m² | - |
| 1778116463 | 30° C | 84% | 1008.5 hPa | 0 mm | - | 143 W/m² | - |
| 1778116163 | 30° C | 85% | 1008.6 hPa | 0 mm | - | 140 W/m² | - |
| 1778115862 | 30° C | 85% | 1008.5 hPa | 0 mm | - | 119 W/m² | - |
* Rain latest hour (hover to see other rain measurements)
** Current wind speed in m/s (hover to see current wind gust speed)